Location: Izdebno
(52.6670°N, 16.2170°E)
Time: 14:31:17
(UTC+01:00)

Vanguard 2 - Pass Details

Date: 30 January 2023
Orbit: 553 x 2927 km, 32.9° (Epoch: 24 March)

Event Time Altitude Azimuth Distance (km) Brightness Sun altitude
Rises 00:47:06 0° 243° (WSW) 6,451 - -54.3°
Reaches altitude 10° 00:51:40 10° 236° (SW) 5,609 - -54.1°
Maximum altitude 01:06:40 37° 178° (S) 3,919 - -53.3°
Exits shadow 01:18:50 14° 123° (ESE) 4,896 11.5 -52.5°
Drops below altitude 10° 01:20:26 10° 119° (ESE) 5,160 11.7 -52.4°
Sets 01:24:24 0° 112° (ESE) 5,901 12.1 -52.1°
